CW9386 Weather Reports


time (UTC)temp
F
wind
direction
speed
knots
gust
knots
rain 1hr
in
rain 24hr
in
rain mn
in
humidity
%
barometer
mb
20260906220644 89 296 0.0 1.7 0.00 0.15 0.15 37 1014.6
20260906214637 87 291 0.9 3.5 0.00 0.15 0.15 41 1014.7
20260906213648 86 349 1.7 6.1 0.00 0.15 0.15 42 1014.9
20260906212644 85 355 1.7 2.6 0.00 0.15 0.15 50 1015.2
20260906211642 84 244 1.7 3.5 0.00 0.15 0.15 50 1015.3
20260906205640 82 253 2.6 4.3 0.00 0.15 0.15 54 1015.6
20260906204636 82 224 3.5 8.7 0.04 0.15 0.15 56 1015.6
20260906203642 81 239 7.0 10.4 0.15 0.15 0.15 55 1015.7
20260906202655 80 246 6.1 12.2 0.15 0.15 0.15 56 1016.0
20260906201647 79 209 4.3 9.6 0.15 0.15 0.15 59 1015.9
20260906200638 77 192 7.8 23.5 0.15 0.15 0.15 59 1015.8
20260906195652 77 190 13.9 25.2 0.15 0.15 0.15 62 1017.3
20260906194649 87 179 13.9 21.7 0.11 0.11 0.11 50 1017.0
20260906193642 90 345 0.9 12.2 0.00 0.00 0.00 35 1015.9
20260906192633 91 300 1.7 7.8 0.00 0.00 0.00 34 1016.0
20260906190650 91 245 3.5 8.7 0.00 0.00 0.00 33 1016.3
20260906185642 92 189 2.6 10.4 0.00 0.00 0.00 32 1016.5
20260906184651 93 66 2.6 7.0 0.00 0.00 0.00 32 1016.6
20260906183648 93 201 2.6 10.4 0.00 0.00 0.00 31 1016.8
20260906181637 93 275 5.2 8.7 0.00 0.00 0.00 33 1017.2
20260906175644 92 282 2.6 9.6 0.00 0.00 0.00 33 1017.6
20260906174637 93 246 7.0 10.4 0.00 0.00 0.00 32 1017.7
20260906173634 93 281 3.5 7.0 0.00 0.00 0.00 32 1017.8
20260906172650 93 229 4.3 10.4 0.00 0.00 0.00 32 1017.9
20260906170634 94 349 1.7 3.5 0.00 0.00 0.00 29 1018.1
20260906164645 94 233 2.6 6.1 0.00 0.00 0.00 30 1018.1
20260906163640 93 15 0.9 3.5 0.00 0.00 0.00 31 1018.1
20260906162632 92 190 2.6 4.3 0.00 0.00 0.00 32 1018.2
20260906161643 92 270 1.7 5.2 0.00 0.00 0.00 32 1018.1
20260906160635 92 180 3.5 5.2 0.00 0.00 0.00 32 1018.1
20260906155647 91 49 0.9 5.2 0.00 0.00 0.00 33 1018.0
20260906153630 90 77 3.5 5.2 0.00 0.00 0.00 35 1018.1
20260906152723 89 121 1.7 5.2 0.00 0.00 0.00 35 1018.2
20260906150646 88 34 2.6 3.5 0.00 0.00 0.00 38 1018.2
20260906145638 87 24 2.6 3.5 0.00 0.00 0.00 39 1018.3
20260906144647 86 5 0.9 3.5 0.00 0.00 0.00 40 1018.1
20260906143638 85 73 0.9 4.3 0.00 0.00 0.00 42 1018.3
20260906141642 82 60 0.9 3.5 0.00 0.00 0.00 47 1018.3
20260906140637 80 60 0.9 1.7 0.00 0.00 0.00 49 1018.2
20260906135644 78 5 0.0 2.6 0.00 0.00 0.00 52 1018.1
20260906134642 77 9 0.0 1.7 0.00 0.00 0.00 53 1018.1
20260906133641 76 9 0.0 1.7 0.00 0.00 0.00 54 1018.0
20260906132634 75 9 0.9 2.6 0.00 0.00 0.00 55 1018.0
20260906131630 75 9 0.0 1.7 0.00 0.00 0.00 56 1018.1
20260906130638 75 9 0.0 0.9 0.00 0.00 0.00 55 1018.0
20260906123629 75 86 0.0 1.7 0.00 0.00 0.00 55 1017.8
20260906122643 75 79 0.0 3.5 0.00 0.00 0.00 56 1017.7
20260906121629 74 48 2.6 3.5 0.00 0.00 0.00 56 1017.7
20260906115642 75 71 1.7 2.6 0.00 0.00 0.00 54 1017.9
20260906114638 75 69 1.7 2.6 0.00 0.00 0.00 53 1017.8
20260906113631 75 27 0.0 0.9 0.00 0.00 0.00 54 1017.9
20260906112630 75 27 0.0 1.7 0.00 0.00 0.00 54 1017.7
20260906110637 75 18 1.7 3.5 0.00 0.00 0.00 53 1017.6
20260906105630 76 333 1.7 1.7 0.00 0.00 0.00 52 1017.4
20260906104627 76 333 0.0 1.7 0.00 0.00 0.00 52 1017.4
20260906102635 77 340 2.6 3.5 0.00 0.00 0.00 50 1017.3
20260906101631 77 99 0.0 0.9 0.00 0.00 0.00 51 1017.1
20260906100624 77 100 0.0 1.7 0.00 0.00 0.00 51 1017.1
20260906095623 78 100 0.9 1.7 0.00 0.00 0.00 50 1016.9
20260906094633 78 98 0.9 2.6 0.00 0.00 0.00 49 1016.7
20260906093625 78 211 0.0 0.0 0.00 0.00 0.00 49 1016.9
20260906092624 79 211 0.0 0.0 0.00 0.00 0.00 48 1016.8
20260906090636 79 211 0.0 0.9 0.00 0.00 0.00 47 1016.8
20260906085630 79 212 1.7 3.5 0.00 0.00 0.00 47 1016.9
20260906084632 79 148 0.9 4.3 0.00 0.00 0.00 47 1016.7
20260906083624 79 161 2.6 5.2 0.00 0.00 0.00 48 1016.8
20260906082638 79 35 2.6 5.2 0.00 0.00 0.00 48 1017.1
20260906075629 78 35 0.9 3.5 0.00 0.00 0.00 47 1017.2
20260906074625 79 34 1.7 2.6 0.00 0.00 0.00 46 1017.3
20260906073638 79 32 0.9 2.6 0.00 0.00 0.00 46 1017.5
20260906072636 79 76 0.9 2.6 0.00 0.00 0.00 46 1017.4
20260906071622 79 95 1.7 2.6 0.00 0.00 0.00 45 1017.4
20260906070658 79 127 2.6 4.3 0.00 0.00 0.00 45 1017.6
20260906065659 79 92 0.0 0.0 0.00 0.00 0.00 44 1017.6
20260906064649 79 95 0.0 0.0 0.00 0.00 0.00 44 1017.6
20260906063706 80 360 0.0 0.0 0.00 0.00 0.00 44 1017.7
20260906062647 80 79 0.0 1.7 0.00 0.00 0.00 43 1017.6
20260906061702 80 360 0.0 1.7 0.00 0.00 0.00 43 1017.6
20260906060657 80 71 0.0 2.6 0.00 0.00 0.00 43 1017.0
20260906055649 80 74 1.7 2.6 0.00 0.00 0.00 43 1016.9
20260906053657 81 96 1.7 3.5 0.00 0.00 0.00 42 1017.0
20260906052654 82 126 0.9 3.5 0.00 0.00 0.00 41 1016.9
20260906051704 82 144 0.9 3.5 0.00 0.00 0.00 41 1016.7
20260906050657 82 126 0.0 1.7 0.00 0.00 0.00 41 1017.6
20260906045651 83 128 0.9 2.6 0.00 0.00 0.00 41 1017.5
20260906044702 83 133 1.7 2.6 0.00 0.00 0.00 40 1016.7
20260906043653 84 137 2.6 3.5 0.00 0.00 0.00 40 1016.8
20260906042703 84 90 0.9 2.6 0.00 0.00 0.00 39 1016.7
20260906041656 85 80 0.0 2.6 0.00 0.00 0.00 38 1016.8
20260906040652 85 74 0.9 2.6 0.00 0.00 0.00 38 1016.8
20260906034701 86 75 0.9 3.5 0.00 0.00 0.00 38 1016.7
20260906032643 86 27 1.7 6.1 0.00 0.00 0.00 38 1016.5
20260906031645 86 11 4.3 7.8 0.00 0.00 0.00 38 1016.3
20260906030653 86 52 3.5 9.6 0.00 0.00 0.00 37 1016.4
20260906025649 86 360 7.8 10.4 0.00 0.00 0.00 37 1016.3
20260906024659 87 360 2.6 7.8 0.00 0.00 0.00 36 1016.2
20260906023650 87 350 2.6 5.2 0.00 0.00 0.00 35 1016.0
20260906021655 87 37 4.3 8.7 0.00 0.00 0.00 35 1015.9
20260906020649 86 25 5.2 9.6 0.00 0.00 0.00 35 1015.8
20260906015642 87 25 7.8 12.2 0.00 0.00 0.00 35 1015.8
20260906013651 89 355 10.4 13.9 0.00 0.00 0.00 31 1015.4
20260906012656 90 5 9.6 15.6 0.00 0.00 0.00 30 1015.5
20260906011654 92 328 7.8 13.0 0.00 0.00 0.00 29 1015.4
20260906010649 93 66 2.6 7.0 0.00 0.00 0.00 28 1015.1
20260906005643 94 62 6.1 9.6 0.00 0.00 0.00 27 1015.2
20260906004652 94 76 3.5 7.0 0.00 0.00 0.00 27 1015.1
20260906003641 95 63 4.3 7.0 0.00 0.00 0.00 25 1015.0
20260906000649 97 290 0.9 6.1 0.00 0.00 0.00 24 1015.1
20260905234647 96 80 0.9 6.1 0.00 0.00 0.00 25 1015.0
20260905233646 96 103 2.6 7.0 0.00 0.00 0.00 25 1015.0
20260905232639 96 100 0.9 7.0 0.00 0.00 0.00 25 1015.1
20260905231655 97 282 2.6 7.0 0.00 0.00 0.00 25 1015.2
20260905230647 97 289 3.5 7.8 0.00 0.00 0.00 25 1015.1
20260905225655 97 197 1.7 7.8 0.00 0.00 0.00 25 1015.1
20260905224650 97 284 1.7 5.2 0.00 0.00 0.00 25 1015.0
20260905223641 96 211 4.3 8.7 0.00 0.00 0.00 26 1015.3
20260905221644 97 303 3.5 7.0 0.00 0.00 0.00 26 1015.5